KUIPER-00170

Last updated on Mon Oct 20 2025 00:02:06 GMT+0000 (Coordinated Universal Time)

1 65783U 25217X 25292.26228830 .00061554 00000+0 17363-2 0 9999 2 65783 51.8676 327.8788 0006131 172.1758 187.9325 15.35799605 3669
UTC large
Height (km)
Speed (km/s)
/
Latitude / Longitude
Inclination (degrees)
Orbital Period (minutes)
Azimuth
Elevation
Range (km)
Doppler Factor

Next 0 passes for location: London (51.5072 / 0.1276)

Sorry there are no passes over London.